Location: Grand Rapids
(42.9630°N, 85.6680°W)
Time: 17:25:48
(UTC-04:00)

BlueWalker 3 - Visible Passes

Search period start: 26 May 2024 00:00
Search period end: 05 June 2024 00:00
Orbit: 481 x 494 km, 53.2° (Epoch: 25 May)

Date Brightness Start Highest point End Pass type
(mag) Time Alt. Az. Time Alt. Az. Time Alt. Az.
30 May 3.5 05:21:32 10° S 05:24:41 26° SE 05:27:50 10° ENE visible
31 May 3.5 04:56:15 10° S 04:59:15 24° SE 05:02:21 10° ENE visible
01 Jun 3.6 04:31:48 15° S 04:33:50 23° SE 04:36:50 10° ENE visible
02 Jun 3.6 04:07:17 19° SSE 04:08:25 21° SE 04:11:18 10° E visible
03 Jun 3.6 03:42:41 20° SE 03:42:58 20° SE 03:45:45 10° E visible
03 Jun 2.2 05:17:09 10° WSW 05:20:50 59° NNW 05:24:33 10° NE visible
04 Jun 3.8 03:18:01 18° ESE 03:18:01 18° ESE 03:20:10 10° E visible
04 Jun 2.1 04:52:22 15° WSW 04:55:21 63° NNW 04:59:05 10° NE visible
